EW5254 Weather Reports


Display with metric or nautical units.
time (UTC)temp
F
wind
direction
speed
MPH
gust
MPH
rain 1hr
in
rain 24hr
in
rain mn
in
humidity
%
barometer
mb
20260903064600 77 162 9.0 15.0 0.00 0.00 0.00 52 1002.1
20260903063107 77 157 10.0 19.0 0.00 0.00 0.00 52 1002.3
20260903061657 77 126 10.0 21.0 0.00 0.00 0.00 52 1002.3
20260903060054 77 157 10.0 17.0 0.00 0.00 0.00 51 1002.3
20260903054600 77 164 10.0 19.0 0.00 0.00 0.00 51 1002.3
20260903053051 78 132 12.0 21.0 0.00 0.00 0.00 50 1002.3
20260903051551 77 130 11.0 19.0 0.00 0.00 0.00 48 1002.3
20260903050044 78 118 8.0 18.0 0.00 0.00 0.00 47 1002.3
20260903044551 78 171 8.0 15.0 0.00 0.00 0.00 46 1002.3
20260903043042 79 140 11.0 19.0 0.00 0.00 0.00 45 1002.4
20260903041552 79 143 9.0 17.0 0.00 0.00 0.00 43 1002.4
20260903040041 79 167 9.0 14.0 0.00 0.00 0.00 43 1002.4
20260903034540 79 148 10.0 16.0 0.00 0.00 0.00 43 1002.3
20260903033039 79 110 4.0 10.0 0.00 0.00 0.00 44 1002.2
20260903031537 79 145 3.0 6.0 0.00 0.00 0.00 45 1002.2
20260903030037 79 88 1.0 3.0 0.00 0.00 0.00 44 1002.2
20260903024536 80 88 0.0 2.0 0.00 0.00 0.00 43 1001.9
20260903023036 80 88 0.0 3.0 0.00 0.00 0.00 44 1001.8
20260903021538 80 88 0.0 6.0 0.00 0.00 0.00 45 1001.7
20260903020040 81 340 0.0 1.0 0.00 0.00 0.00 43 1001.7
20260903014546 81 340 0.0 1.0 0.00 0.00 0.00 43 1001.6
20260903013033 81 340 0.0 2.0 0.00 0.00 0.00 44 1001.5
20260903011538 82 340 0.0 2.0 0.00 0.00 0.00 43 1001.5
20260903010037 83 340 0.0 4.0 0.00 0.00 0.00 42 1001.6
20260903004533 84 13 1.0 4.0 0.00 0.00 0.00 39 1001.6
20260903003030 85 344 2.0 4.0 0.00 0.00 0.00 38 1001.4
20260903001530 86 305 3.0 6.0 0.00 0.00 0.00 37 1001.4
20260903000030 87 325 2.0 6.0 0.00 0.00 0.00 37 1001.5
20260902234527 88 325 4.0 9.0 0.00 0.00 0.00 37 1001.5
20260902233029 88 360 3.0 6.0 0.00 0.00 0.00 37 1001.6
20260902231540 88 333 3.0 6.0 0.00 0.00 0.00 31 1001.7
20260902230025 88 336 3.0 11.0 0.00 0.00 0.00 32 1001.8
20260902224524 88 331 4.0 9.0 0.00 0.00 0.00 31 1001.9
20260902223034 88 316 2.0 6.0 0.00 0.00 0.00 32 1002.0
20260902221528 87 319 2.0 6.0 0.00 0.00 0.00 33 1002.2
20260902220027 86 78 1.0 7.0 0.00 0.00 0.00 34 1002.2
20260902214522 84 65 2.0 4.0 0.00 0.00 0.00 41 1002.5
20260902213016 82 360 2.0 9.0 0.00 0.00 0.00 43 1002.9
20260902211514 81 346 1.0 5.0 0.00 0.00 0.00 44 1003.0
20260902210014 81 107 0.0 8.0 0.00 0.00 0.00 44 1003.1
20260902204512 79 161 6.0 12.0 0.00 0.19 0.00 46 1003.2
20260902203011 78 185 8.0 16.0 0.00 0.19 0.00 49 1003.6
20260902201510 79 204 10.0 16.0 0.00 0.19 0.00 48 1003.7
20260902200011 77 187 15.0 27.0 0.00 0.19 0.00 52 1003.7
20260902194524 82 173 16.0 25.0 0.00 0.57 0.00 44 1003.5
20260902193006 86 164 3.0 9.0 0.00 0.57 0.00 38 1003.8
20260902191505 86 204 1.0 7.0 0.00 0.57 0.00 36 1003.8
20260902190006 87 130 4.0 9.0 0.00 0.57 0.00 35 1003.9
20260902184503 88 191 1.0 10.0 0.00 0.57 0.00 34 1004.1
20260902183100 88 240 1.0 6.0 0.00 0.57 0.00 34 1004.4
20260902181558 87 22 3.0 8.0 0.00 0.57 0.00 36 1004.6
20260902180058 87 292 5.0 10.0 0.00 0.57 0.00 36 1004.8
20260902174556 86 5 4.0 9.0 0.00 0.57 0.00 36 1005.0
20260902173054 85 17 6.0 12.0 0.00 0.57 0.00 37 1005.2
20260902171552 85 347 3.0 10.0 0.00 0.57 0.00 37 1005.5
20260902170051 85 280 5.0 10.0 0.00 0.57 0.00 39 1005.6
20260902164550 84 273 3.0 10.0 0.00 0.57 0.00 42 1005.6
20260902163046 83 228 9.0 14.0 0.00 0.57 0.00 43 1005.7
20260902161544 83 302 4.0 10.0 0.00 0.57 0.00 44 1005.7
20260902160043 82 286 7.0 12.0 0.00 0.57 0.00 44 1005.7
20260902154538 81 271 7.0 12.0 0.00 0.57 0.00 45 1005.7
20260902153034 80 232 8.0 13.0 0.00 0.57 0.00 48 1005.8
20260902151534 79 232 9.0 14.0 0.00 0.57 0.00 51 1005.8
20260902150030 78 237 9.0 12.0 0.00 0.57 0.00 53 1005.7
20260902144525 77 232 8.0 14.0 0.00 0.57 0.00 54 1005.7
20260902143021 76 213 9.0 15.0 0.00 0.57 0.00 55 1005.6
20260902141519 75 209 9.0 12.0 0.00 0.57 0.00 57 1005.5
20260902140017 75 187 9.0 14.0 0.00 0.57 0.00 58 1005.4
20260902134525 74 202 9.0 15.0 0.00 0.57 0.00 60 1005.4
20260902133014 73 161 8.0 16.0 0.00 0.57 0.00 61 1005.1
20260902131512 72 196 6.0 10.0 0.00 0.57 0.00 63 1005.0
20260902130011 71 213 3.0 9.0 0.00 0.57 0.00 64 1004.8
20260902124514 71 178 4.0 9.0 0.00 0.57 0.00 63 1004.6
20260902123013 71 209 3.0 11.0 0.00 0.57 0.00 63 1004.5
20260902121509 72 192 8.0 15.0 0.00 0.57 0.00 62 1004.4
20260902120006 72 208 8.0 13.0 0.00 0.57 0.00 62 1004.5
20260902114508 71 148 6.0 12.0 0.00 0.57 0.00 63 1004.5
20260902113004 71 224 3.0 5.0 0.00 0.57 0.00 63 1004.5
20260902111503 72 219 3.0 11.0 0.00 0.57 0.00 61 1004.5
20260902110008 72 190 5.0 12.0 0.00 0.57 0.00 62 1004.5
20260902104505 71 169 1.0 6.0 0.00 0.57 0.00 63 1004.5
20260902103103 72 178 2.0 9.0 0.00 0.57 0.00 63 1004.4
20260902101602 72 194 3.0 8.0 0.00 0.57 0.00 62 1004.4
20260902100128 71 189 3.0 7.0 0.00 0.57 0.00 63 1004.4
20260902094602 71 203 5.0 10.0 0.00 0.57 0.00 63 1004.5
20260902093117 71 167 3.0 5.0 0.00 0.57 0.00 64 1004.6
20260902091557 73 240 4.0 11.0 0.00 0.57 0.00 61 1004.5
20260902090100 74 148 8.0 16.0 0.00 0.57 0.00 58 1004.3
20260902084602 74 141 12.0 17.0 0.00 0.57 0.00 58 1004.3
20260902083105 74 162 8.0 15.0 0.00 0.57 0.00 58 1004.3
20260902081611 73 182 10.0 15.0 0.00 0.57 0.00 60 1004.3
20260902080058 73 184 10.0 14.0 0.00 0.57 0.00 60 1004.2
20260902074548 73 175 10.0 14.0 0.00 0.57 0.00 59 1004.2
20260902073045 74 171 12.0 19.0 0.00 0.57 0.00 58 1004.3
20260902071549 74 151 10.0 18.0 0.00 0.57 0.00 57 1004.4
20260902070043 74 144 8.0 15.0 0.00 0.57 0.00 58 1004.4